Volver al catálogo

STARLINK-34201

ActivoComunicacionesVLEO
NORAD 64077·PAYLOAD·🇺🇸 United States

Lanzado May 21, 2025 desde Cape Canaveral Space Force Station

Loading…

Próximos Pases (próximas 24 horas)

TLE

ActualizadoSource: CelesTrak SupGP

Época: Sep 15, 2026, 03:30 UTC

1 64077C 25107P   26258.14631944 -.00050917  00000+0 -18445-2 0  2589
2 64077  42.9997 211.8852 0001449 272.4925  31.7633 15.27598912    15

Sigue STARLINK-34201 en tiempo real con AllMySat

Download on the App Store